Zurück zum Katalog

THOR BURNER 2 R/B

AktivSSO
NORAD 4954·ROCKET BODY·🇺🇸 United States

Gestartet Feb 17, 1971 von Vandenberg Space Force Base

Loading…

Nächste Überflüge (nächste 24 Stunden)

TLE

AktuellSource: Space-Track

Epoche: Sep 14, 2026, 20:25 UTC

1 04954U 71012B   26257.85117117  .00000112  00000-0  49039-4 0  9999
2 04954  98.3160 109.1842 0035752 324.1234  35.7554 14.39799523908779

Verfolge THOR BURNER 2 R/B in Echtzeit mit AllMySat

Download on the App Store